Weather History for Araxos, Greece

Change the Weather History Date:

Friday, November 23, 2012

  Actual Average Record
Temperature  
Mean Temperature 56 °F -  
Max Temperature 66 °F 59 °F 68 °F (1997)
Min Temperature 46 °F 44 °F 32 °F (2004)
Degree Days  
Heating Degree Days 9    
Growing Degree Days 6 (Base 50)    
Moisture  
Dew Point 48 °F    
Average Humidity 74    
Maximum Humidity 94    
Minimum Humidity 52    
Precipitation  
Precipitation 0.00 in - - ()
Sea Level Pressure  
Sea Level Pressure 30.14 in    
Wind  
Wind Speed 2 mph ()    
Max Wind Speed 7 mph    
Max Gust Speed -    
Visibility 6.2 miles    
Events      
Averages and records for this station are not official NWS values.
T = Trace of Precipitation, MM = Missing Value Source: Averaged Metar Reports

Daily Weather History Graph

Daily Weather History Graph

Search for Another Location

Airport:

Trip Planner

Search our weather history database for the weather conditions in past years. The results will help you decide how hot, cold, wet, or windy it might be!

Date:

Astronomy

Nov. 23, 2012 Rise Set
Actual Time 7:24 AM EET 5:17 PM EET
Civil Twilight 6:55 AM EET 5:45 PM EET
Nautical Twilight 6:23 AM EET 6:18 PM EET
Astronomical Twilight 5:51 AM EET 6:49 PM EET
Moon 2:19 PM EET (11/23) 2:28 AM EET (11/23)
Length of Visible Light 10h 50m
Length of Day
9h 53m
Waxing Gibbous, 77% of the Moon is Illuminated
Nov 23
Waxing Gibbous
Nov 28
Full
Dec 6
Last Quarter
Dec 13
New
Dec 20
First Quarter

Hourly Weather History & Observations

Time (EET) Temp. Dew Point Humidity Pressure Visibility Wind Dir Wind Speed Gust Speed Precip Events Conditions
12:50 AM 55.4 °F 44.6 °F 67% 30.15 in 6.2 mi Variable 3.5 mph - N/A   Partly Cloudy
1:50 AM 55.4 °F 51.8 °F 88% 30.15 in 6.2 mi Calm Calm - N/A   Partly Cloudy
2:50 AM 55.4 °F 44.6 °F 67% 30.15 in 6.2 mi Calm Calm - N/A   Partly Cloudy
3:50 AM 51.8 °F 44.6 °F 76% 30.15 in - Calm Calm - N/A   Clear
4:50 AM 50.0 °F 46.4 °F 87% 30.12 in - Calm Calm - N/A   Clear
5:20 AM 48.2 °F 44.6 °F 87% 30.12 in - Calm Calm - N/A   Clear
5:50 AM 48.2 °F 46.4 °F 93% 30.12 in - Calm Calm - N/A   Clear
6:20 AM 46.4 °F 44.6 °F 93% 30.12 in - Calm Calm - N/A   Clear
6:50 AM 46.4 °F 42.8 °F 87% 30.12 in 6.2 mi Calm Calm - N/A   Partly Cloudy
7:20 AM 48.2 °F 41.0 °F 76% 30.15 in 6.2 mi Calm Calm - N/A   Partly Cloudy
7:50 AM 48.2 °F 46.4 °F 93% 30.15 in 6.2 mi Variable 3.5 mph - N/A   Partly Cloudy
8:20 AM 50.0 °F 44.6 °F 82% 30.15 in 6.2 mi Calm Calm - N/A   Partly Cloudy
8:50 AM 53.6 °F 48.2 °F 82% 30.15 in 6.2 mi Variable 1.2 mph - N/A   Partly Cloudy
9:20 AM 57.2 °F 48.2 °F 72% 30.15 in 6.2 mi Calm Calm - N/A   Partly Cloudy
9:50 AM 60.8 °F 48.2 °F 63% 30.15 in 6.2 mi Variable 2.3 mph - N/A   Scattered Clouds
10:20 AM 60.8 °F 48.2 °F 63% 30.18 in - NNE 4.6 mph - N/A   Clear
10:50 AM 62.6 °F 48.2 °F 59% 30.18 in - NE 5.8 mph - N/A   Clear
11:20 AM 64.4 °F 48.2 °F 56% 30.18 in - NNE 4.6 mph - N/A   Clear
11:50 AM 64.4 °F 48.2 °F 56% 30.18 in - North 6.9 mph - N/A   Clear
12:20 PM 64.4 °F 48.2 °F 56% 30.18 in - NE 6.9 mph - N/A   Clear
12:50 PM 66.2 °F 48.2 °F 52% 30.15 in - NE 6.9 mph - N/A   Clear
1:20 PM 66.2 °F 48.2 °F 52% 30.15 in - NE 6.9 mph - N/A   Clear
1:50 PM 66.2 °F 50.0 °F 56% 30.15 in - NE 5.8 mph - N/A   Clear
2:20 PM 66.2 °F 48.2 °F 52% 30.12 in - NE 6.9 mph - N/A   Clear
2:50 PM 64.4 °F 50.0 °F 59% 30.12 in - NNE 5.8 mph - N/A   Clear
3:20 PM 64.4 °F 50.0 °F 59% 30.12 in - NNE 5.8 mph - N/A   Clear
3:50 PM 64.4 °F 48.2 °F 56% 30.12 in - NNW 4.6 mph - N/A   Clear
4:20 PM 64.4 °F 48.2 °F 56% 30.12 in - North 4.6 mph - N/A   Clear
4:50 PM 64.4 °F 51.8 °F 64% 30.12 in - Calm Calm - N/A   Clear
5:20 PM 59.0 °F 51.8 °F 77% 30.12 in - Calm Calm - N/A   Clear
5:50 PM 57.2 °F 51.8 °F 82% 30.12 in - Calm Calm - N/A   Clear
6:20 PM 55.4 °F 50.0 °F 82% 30.12 in - Calm Calm - N/A   Clear
6:50 PM 55.4 °F 50.0 °F 82% 30.12 in - Calm Calm - N/A   Clear
7:20 PM 53.6 °F 50.0 °F 88% 30.12 in - Calm Calm - N/A   Clear
7:50 PM 53.6 °F 50.0 °F 88% 30.12 in - Calm Calm - N/A   Clear
8:50 PM 51.8 °F 50.0 °F 94% 30.12 in - Calm Calm - N/A   Clear
9:50 PM 51.8 °F 48.2 °F 88% 30.12 in - Calm Calm - N/A   Clear
10:50 PM 53.6 °F 51.8 °F 94% 30.12 in - Variable 3.5 mph - N/A   Clear
11:50 PM 53.6 °F 50.0 °F 88% 30.12 in - Variable 3.5 mph - N/A   Clear